Location: Cluj-Napoca
(46.7712°N, 23.6236°E)
Time: 21:38:44
(UTC+02:00)

First-Move - Pass Details

Date: 30 November 2021
Orbit: 574 x 665 km, 97.6° (Epoch: 28 January)

Event Time Altitude Azimuth Distance (km) Brightness Sun altitude
Rises 04:36:57 0° 17° (NNE) 2,987 ? -32.1°
Reaches altitude 10° 04:39:14 10° 23° (NNE) 2,080 ? -31.7°
Enters shadow 04:40:37 19° 29° (NNE) 1,553 ? -31.4°
